Notices

What's New in latest Release from April 7th, 2021:

- Updated Glossary, including Speed of Maximum Gust, and Total Hourly Precipitation

- Updated national and regional climate services offices contacts and prices information

- Addition of station inventory lists for 1981-2010, 1971-2000, and 1961-1990 Normals.

If you haven't already, please take our survey and provide feedback about our website: https://eccc.sondage-survey.ca/f/LanguageSelection.aspx?s=442ca660-fcf1-47c0-95a9-59707d6fd709

Hourly Data Report for December 02, 2020

SHEARWATER RCS
NOVA SCOTIA
Current Station Operator: ECCC - MSC

44°37'47.000" N
63°30'48.000" W
24.00 m
8205092
71264
AAW

Download Data

Hourly Data (December 2020)
Hourly Data Report for December 2, 2020
TIME
LST
Temp Definition
°C
Dew Point Definition
°C
Rel Hum Definition
%
Precip. Amount Definition
mm

Wind Dir Definition
10's deg

Wind Spd Definition
km/h
Visibility Definition
km
Stn Press Definition
kPa
Hmdx Definition


Wind Chill Definition


Weather Definition


00:00 13.2 12.2 94 0.0 13 27   101.09     LegendNANA
01:00 12.9 12.3 96 0.0 12 23   101.06     LegendNANA
02:00 13.2 12.3 94 0.0 12 27   101.00     LegendNANA
03:00 12.7 12.1 96 0.4 15 20   100.99     LegendNANA
04:00 12.5 12.0 97 1.3 17 17   101.00     LegendNANA
05:00 12.5 12.2 98 1.4 14 10   100.96     LegendNANA
06:00 11.8 11.5 98 0.3 13 7   101.01     LegendNANA
07:00 12.3 12.0 98 0.2 12 9   101.01     LegendNANA
08:00 11.4 11.2 98 0.3 18 7   101.13     LegendNANA
09:00 11.7 11.5 98 1.0 14 4   101.03     LegendNANA
10:00 11.5 11.2 98 0.4 14 7   101.13     LegendNANA
11:00 10.7 10.5 98 0.2 23 9   100.99     LegendNANA
12:00 9.9 9.1 95 0.0 28 7   100.97     LegendNANA
13:00 9.9 8.3 90 0.0 29 5   101.00     LegendNANA
14:00 9.7 8.4 92 0.0 19 4   100.96     LegendNANA
15:00 9.5 8.3 92 0.0 21 3   100.86     LegendNANA
16:00 9.3 8.4 94 0.0 22 7   100.92     LegendNANA
17:00 8.8 7.6 92 0.0 26 4   100.89     LegendNANA
18:00 8.5 7.5 94 0.0 25 9   100.93     LegendNANA
19:00 6.8 6.1 95 0.0 19 5   100.94     LegendNANA
20:00 6.7 6.2 97 0.2 22 6   100.91     LegendNANA
21:00 6.7 6.3 97 0.0 13 4   100.88     LegendNANA
22:00 7.0 6.6 97 0.0 7 3   100.90     LegendNANA
23:00 8.2 7.9 98 0.0 16 9   100.89     LegendNANA

Notes on Data Quality.

Legend

  • E = Estimated
  • M = Missing
  • NA = Not Available*
  • [empty] = Indicates an unobserved value
Date modified: